Regional Weather Roundup
Issued by NWS Sioux Falls, SD

Home | Current Version | Previous Version | Text Only | Print | Product List | Glossary On
Versions: 1 2 3 4 5 6 7 8 9 10 11 12 13 14 15 16 17 18 19 20 21 22 23 24 25 26 27 28 29 30 31 32 33 34 35 36 37 38 39 40 41 42 43 44 45 46 47 48 49 50
000
ASUS43 KFSD 182102
RWRFSD

WEATHER ROUNDUP FOR SE SOUTH DAKOTA/SW MINNESOTA/NW IOWA
NATIONAL WEATHER SERVICE SIOUX FALLS SD
400 PM CDT FRI AUG 18 2017

NOTE: "FAIR" INDICATES FEW OR NO CLOUDS BELOW 12,000 FEET WITH NO
SIGNIFICANT WEATHER AND OR OBSTRUCTIONS TO VISIBILITY.


SDZ038>040-050-052>070-182200-
SOUTHEAST SOUTH DAKOTA

CITY           SKY/WX    TMP DP  RH WIND       PRES   REMARKS
BROOKINGS      PTSUNNY   78  62  57 W16G24    29.87F
CHAMBERLAIN    SUNNY     84  58  42 NW10      29.94S
HURON          SUNNY     77  61  57 NW21      29.90S
MADISON        FAIR      75  68  78 SW13G20   29.90S
MITCHELL       MOSUNNY   82  61  48 NW13      29.90S
SIOUX FALLS    PTSUNNY   79  65  62 SW7       29.89F
WINNER         FAIR      84  57  39 N8G17     29.97S
YANKTON        MOSUNNY   82  64  54 W13       29.90S
$$

MNZ071-072-080-081-089-090-097-098-182200-
SOUTHWEST MINNESOTA

CITY           SKY/WX    TMP DP  RH WIND       PRES   REMARKS
FAIRMONT       SUNNY     74  60  61 MISG      29.92S
JACKSON        MOSUNNY   75  61  60 CALM      29.92S
LUVERNE        SUNNY     77  59  53 SW6       29.90F
MARSHALL       CLOUDY    78  61  55 S10       29.87S
MONTEVIDEO     MOSUNNY   75  63  64 SE8       29.87F
PIPESTONE      MOSUNNY   77  61  57 SW10      29.90S
REDWOOD FALLS  MOSUNNY   76  62  62 SE6       29.89S
TRACY          SUNNY     78  64  61 S10       29.88F
WINDOM         SUNNY     77  59  53 SW3       29.90F
WORTHINGTON    PTSUNNY   76  62  62 S8        29.91F
$$

IAZ001>003-012>014-020>022-031-032-NEZ013-014-SDZ071-182200-
NORTHWEST IOWA

CITY           SKY/WX    TMP DP  RH WIND       PRES   REMARKS
CHEROKEE       SUNNY     78  64  62 SE5       29.90S
DENISON        SUNNY     81  64  57 SW6       29.91F
ESTHERVILLE    MOSUNNY   75  63  66 VRB5      29.90F
LE MARS        SUNNY     81  64  57 CALM      29.89S
ORANGE CITY    MOSUNNY   79  64  61 S5        29.90F
SHELDON        SUNNY     79  64  61 VRB7      29.88F
SIOUX CITY     SUNNY     82  67  60 S5        29.89S
SPENCER        SUNNY     78  59  51 S7        29.90F
STORM LAKE     SUNNY     75  63  64 CALM      29.91F
$$

ABBREVIATIONS USED IN REMARKS
   TC - TEMPERATURE IN CELSIUS
  WCI - WIND CHILL INDEX
   HX - HEAT INDEX
  VSB - VISIBILITY




USA.gov is the U.S. government's official web portal to all federal, state and local government web resources and services.